Location: Ailly
(50.0793°N, 1.9944°E)
Time: 20:49:26
(UTC+00:00)

Cosmos 2082 Rocket - Pass Details

Date: 15 January 2026
Orbit: 831 x 853 km, 71.0° (Epoch: 15 February)

Event Time Altitude Azimuth Distance (km) Brightness Sun altitude
Exits shadow 06:36:22 - 322° (NW) 2,565 4.2 -10.7°
Reaches altitude 10° 06:36:38 10° 321° (NW) 2,472 4.1 -10.6°
Maximum altitude 06:41:59 44° 251° (WSW) 1,153 2.6 -9.8°
Drops below altitude 10° 06:47:19 10° 180° (S) 2,469 4.9 -9.0°
Sets 06:49:52 0° 174° (S) 3,403 5.8 -8.7°
